カタログに戻る

STARLINK-5058

運用中通信VLEO
NORAD 55456·PAYLOAD·🇺🇸 United States

打ち上げ Feb 2, 2023 から Cape Canaveral Space Force Station

Loading…

次のパス (今後24時間)

TLE

最新Source: CelesTrak SupGP

元期: Sep 15, 2026, 01:46 UTC

1 55456C 23015H   26258.07409722  .00010519  00000+0  38108-3 0  2586
2 55456  43.0015 339.1076 0001552 261.1549 213.2613 15.27567041    17

AllMySatでSTARLINK-5058をリアルタイム追跡

Download on the App Store